OVERFALLS Weather Reports


Display with metric or nautical units.
time (UTC)temp
F
wind
direction
speed
MPH
gust
MPH
rain 1hr
in
rain 24hr
in
rain mn
in
humidity
%
barometer
mb
20260506040042 67 183 11.0 19.0 0.00 0.00 0.00 72 1013.3
20260506034551 67 192 10.0 25.0 0.00 0.00 0.00 72 1013.4
20260506033043 67 232 10.0 23.0 0.00 0.00 0.00 71 1013.4
20260506031543 68 205 10.0 23.0 0.00 0.00 0.00 70 1013.4
20260506030043 68 205 8.0 20.0 0.00 0.00 0.00 70 1013.4
20260506024543 68 206 8.0 19.0 0.00 0.00 0.00 70 1013.4
20260506023043 68 188 9.0 18.0 0.00 0.00 0.00 70 1013.5
20260506021544 68 173 9.0 22.0 0.00 0.00 0.00 69 1013.4
20260506020051 68 207 8.0 18.0 0.00 0.00 0.00 69 1013.4
20260506014545 69 192 10.0 19.0 0.00 0.00 0.00 68 1013.4
20260506013052 69 213 10.0 23.0 0.00 0.00 0.00 68 1013.0
20260506011543 69 207 8.0 21.0 0.00 0.00 0.00 68 1012.9
20260506010041 69 180 9.0 22.0 0.00 0.00 0.00 68 1012.7
20260506004543 69 199 8.0 22.0 0.00 0.00 0.00 68 1012.5
20260506003042 69 218 10.0 22.0 0.00 0.00 0.00 67 1012.3
20260506001553 70 179 9.0 20.0 0.00 0.00 0.00 66 1012.4
20260506000047 70 177 7.0 19.0 0.00 0.00 0.00 63 1012.3
20260505234541 71 213 10.0 26.0 0.00 0.00 0.00 61 1012.3
20260505233039 72 202 8.0 21.0 0.00 0.00 0.00 58 1012.2
20260505231546 72 153 10.0 23.0 0.00 0.00 0.00 58 1012.2
20260505230108 73 187 9.0 23.0 0.00 0.00 0.00 58 1012.2
20260505224539 73 195 8.0 23.0 0.00 0.00 0.00 57 1012.2
20260505223044 75 165 9.0 21.0 0.00 0.00 0.00 54 1012.0
20260505221556 75 179 11.0 25.0 0.00 0.00 0.00 53 1012.0
20260505220053 75 182 12.0 28.0 0.00 0.00 0.00 53 1011.9
20260505214543 76 183 9.0 28.0 0.00 0.00 0.00 53 1011.8
20260505213041 76 189 9.0 19.0 0.00 0.00 0.00 52 1011.7
20260505211554 77 183 12.0 23.0 0.00 0.00 0.00 51 1011.7
20260505210042 78 169 9.0 25.0 0.00 0.00 0.00 50 1011.6
20260505204549 79 139 9.0 23.0 0.00 0.00 0.00 48 1011.5
20260505203046 80 192 12.0 23.0 0.00 0.00 0.00 45 1011.5
20260505201548 82 244 10.0 28.0 0.00 0.00 0.00 35 1011.7
20260505200045 82 185 13.0 26.0 0.00 0.00 0.00 35 1011.9
20260505194544 82 189 14.0 26.0 0.00 0.00 0.00 34 1011.9
20260505193055 83 205 13.0 22.0 0.00 0.00 0.00 33 1012.1
20260505191544 83 258 11.0 25.0 0.00 0.00 0.00 32 1012.1
20260505190043 83 192 11.0 22.0 0.00 0.00 0.00 34 1012.0
20260505184545 83 181 10.0 21.0 0.00 0.00 0.00 34 1012.2
20260505183047 83 230 10.0 20.0 0.00 0.00 0.00 36 1012.1
20260505181546 82 234 12.0 24.0 0.00 0.00 0.00 36 1012.5
20260505180045 82 231 9.0 20.0 0.00 0.00 0.00 38 1012.7
20260505174542 82 222 10.0 17.0 0.00 0.00 0.00 40 1012.9
20260505173042 82 201 9.0 17.0 0.00 0.00 0.00 40 1012.9
20260505171546 82 245 8.0 19.0 0.00 0.00 0.00 40 1013.2
20260505170045 82 232 8.0 19.0 0.00 0.00 0.00 40 1013.1
20260505164549 81 212 7.0 16.0 0.00 0.00 0.00 40 1013.1
20260505163045 80 182 9.0 20.0 0.00 0.00 0.00 41 1013.2
20260505161547 80 249 6.0 14.0 0.00 0.00 0.00 43 1013.3
20260505153040 77 194 8.0 18.0 0.00 0.00 0.00 47 1013.5
20260505151545 77 276 8.0 17.0 0.00 0.00 0.00 47 1013.4
20260505124549 68 237 7.0 18.0 0.00 0.00 0.00 62 1013.4
20260505123041 67 199 8.0 16.0 0.00 0.00 0.00 63 1013.5
20260505121544 66 252 8.0 19.0 0.00 0.00 0.00 66 1013.3
20260505120043 65 204 9.0 21.0 0.00 0.00 0.00 66 1013.4
20260505114542 65 221 9.0 18.0 0.00 0.00 0.00 67 1013.2
20260505113045 64 242 8.0 15.0 0.00 0.00 0.00 68 1013.2
20260505111545 64 236 5.0 16.0 0.00 0.00 0.00 69 1013.2
20260505101549 63 219 8.0 16.0 0.00 0.00 0.00 69 1012.9
20260505100045 63 258 8.0 17.0 0.00 0.00 0.00 68 1012.7
20260505094544 63 230 7.0 14.0 0.00 0.00 0.00 68 1012.5
20260505093043 63 191 8.0 18.0 0.00 0.00 0.00 68 1012.4
20260505091541 63 252 7.0 16.0 0.00 0.00 0.00 69 1012.4
20260505090045 63 232 6.0 14.0 0.00 0.00 0.00 69 1012.3
20260505084550 63 227 7.0 14.0 0.00 0.00 0.00 69 1012.3
20260505083055 63 185 6.0 14.0 0.00 0.00 0.00 70 1012.4
20260505081552 63 254 8.0 17.0 0.00 0.00 0.00 70 1012.3
20260505080049 63 204 7.0 17.0 0.00 0.00 0.00 71 1012.4
20260505074548 62 234 4.0 17.0 0.00 0.00 0.00 72 1012.4
20260505073044 62 240 5.0 14.0 0.00 0.00 0.00 73 1012.3
20260505071549 62 226 8.0 17.0 0.00 0.00 0.00 74 1012.3
20260505070042 62 211 6.0 13.0 0.00 0.00 0.00 74 1012.3
20260505064543 62 213 6.0 18.0 0.00 0.00 0.00 75 1012.2
20260505063043 62 213 8.0 14.0 0.00 0.00 0.00 74 1012.2
20260505061542 62 239 6.0 17.0 0.00 0.00 0.00 74 1012.2
20260505060049 62 231 6.0 15.0 0.00 0.00 0.00 74 1012.2
20260505054554 63 213 7.0 16.0 0.00 0.00 0.00 73 1012.2
20260505053046 63 192 8.0 16.0 0.00 0.00 0.00 73 1012.2
20260505051544 63 246 8.0 17.0 0.00 0.00 0.00 73 1012.3
20260505041544 63 221 7.0 15.0 0.00 0.00 0.00 72 1012.7